Weather in Keila

Estonia     59°18′42″N   24°23′35″E
temp.,
°C
wind,
m/s
gust,
m/s
humid.,
%
clouds,
%
prec.,
mm/h
press.,
hPa
HPBL,
m
13 april, tue
tue1300:00+9sw3988100 0.0 1017729
03:00+5w3783100 0.0 1018485
06:00+5wsw2678100 0.0 1019425
09:00+6wsw356887 0.0 1020532
12:00+7w3556100 0.0 10211125
15:00+8wnw3545100 0.0 10211185
18:00+7wnw3448100 0.0 1021917
21:00+4wnw1269100 0.0 102194
14 april, wed
wed1400:00+3wsw2472100 0.0 1021167
03:00+1w138424 0.0 1021100
06:000wsw22945 0.0 102136
09:00+4wnw237455 0.0 1021379
12:00+7nw34555 0.0 10221249
15:00+8nw345013 0.0 10231245
18:00+6nw3453100 0.0 1024830
21:00+2wnw2476100 0.0 102590
15 april, thu
thu1500:00+2n3874100 0.0 1026210
03:00+2nne2978100 0.0 1027234
06:00+1nne398193 0.0 1028246
09:00+4ne496686 0.0 1029602
12:00+6ne584894 0.0 10301002
15:00+7ne68405 0.0 1030993
18:00+7ne410442 0.0 10291055
21:00+3nne39640 0.0 1030262
16 april, fri
fri1600:00+2ne312640 0.0 1030359
03:00+1ne312760 0.0 1029297
06:00+1ne313770 0.0 1029361
09:00+5ne513598 0.0 1029658
12:00+9ne694438 0.0 1029972
15:00+9ne694050 0.0 10291002
18:00+9ne5114553 0.0 1029933
21:00+5ene4145296 0.0 1030577
17 april, sat
sat1700:00+4ene4125994 0.0 1030354
03:00+2ne3117411 0.0 1030262
06:00+2ne3137864 0.0 1031309
09:00+6ene412605 0.0 1031500
12:00+11ene58415 0.0 1030928
15:00+13ene57427 0.0 10301089
18:00+12ene4749100 0.0 1030889
21:00+7ene3116069 0.0 1031321